Location: Jackson
(42.2460°N, 84.4010°W)
Time: 10:15:35
(UTC-04:00)

Injun/Solrad 3 - Pass Details

Date: 16 February 2026
Orbit: 871 x 985 km, 66.8° (Epoch: 16 March)

Event Time Altitude Azimuth Distance (km) Brightness Sun altitude
Rises 21:36:35 0° 325° (NW) 3,582 11.6 -38.1°
Reaches altitude 10° 21:39:09 10° 320° (NW) 2,653 10.8 -38.6°
Enters shadow 21:42:42 34° 301° (WNW) 1,520 9.3 -39.2°
